TimeEDT,TemperatureF,Dew PointF,Humidity,Sea Level PressureIn,VisibilityMPH,Wind Direction,Wind SpeedMPH,Gust SpeedMPH,PrecipitationIn,Events,Conditions,WindDirDegrees,DateUTC
12:17 AM,39.2,30.2,70,30.22,10.0,Calm,Calm,-,N/A,,Clear,0,2013-05-14 04:17:00
12:37 AM,37.4,30.2,75,30.22,10.0,Calm,Calm,-,N/A,,Clear,0,2013-05-14 04:37:00
12:57 AM,37.4,32.0,81,30.22,10.0,Calm,Calm,-,N/A,,Clear,0,2013-05-14 04:57:00
1:17 AM,33.8,30.2,87,30.22,10.0,Calm,Calm,-,N/A,,Clear,0,2013-05-14 05:17:00
1:37 AM,33.8,32.0,93,30.23,10.0,Calm,Calm,-,N/A,,Clear,0,2013-05-14 05:37:00
1:57 AM,33.8,32.0,93,30.23,10.0,North,3.5,-,N/A,,Clear,360,2013-05-14 05:57:00
2:17 AM,35.6,32.0,87,30.23,10.0,Calm,Calm,-,N/A,,Clear,0,2013-05-14 06:17:00
2:37 AM,33.8,30.2,87,30.23,10.0,Calm,Calm,-,N/A,,Clear,0,2013-05-14 06:37:00
2:57 AM,32.0,32.0,100,30.23,10.0,Calm,Calm,-,N/A,,Clear,0,2013-05-14 06:57:00
3:17 AM,32.0,32.0,100,30.23,10.0,Calm,Calm,-,N/A,,Clear,0,2013-05-14 07:17:00
3:37 AM,32.0,30.2,93,30.23,10.0,Calm,Calm,-,N/A,,Clear,0,2013-05-14 07:37:00
3:58 AM,32.0,30.2,93,30.23,10.0,North,3.5,-,N/A,,Clear,360,2013-05-14 07:58:00
4:18 AM,32.0,32.0,100,30.23,10.0,North,4.6,-,N/A,,Clear,360,2013-05-14 08:18:00
4:38 AM,32.0,30.2,93,30.24,10.0,North,3.5,-,N/A,,Clear,360,2013-05-14 08:38:00
4:58 AM,32.0,30.2,93,30.24,10.0,Calm,Calm,-,N/A,,Clear,0,2013-05-14 08:58:00
5:18 AM,32.0,28.4,87,30.24,0.2,Calm,Calm,-,N/A,,Unknown,0,2013-05-14 09:18:00
5:38 AM,32.0,30.2,93,30.25,0.2,Calm,Calm,-,N/A,,Unknown,0,2013-05-14 09:38:00
5:58 AM,32.0,30.2,93,30.25,10.0,Calm,Calm,-,N/A,,Clear,0,2013-05-14 09:58:00
6:18 AM,32.0,30.2,93,30.25,10.0,Calm,Calm,-,N/A,,Clear,0,2013-05-14 10:18:00
6:38 AM,32.0,30.2,93,30.25,10.0,Calm,Calm,-,N/A,,Clear,0,2013-05-14 10:38:00
6:58 AM,32.0,30.2,93,30.25,10.0,Calm,Calm,-,N/A,,Clear,0,2013-05-14 10:58:00
7:18 AM,32.0,32.0,100,30.25,7.0,Calm,Calm,-,N/A,,Clear,0,2013-05-14 11:18:00
7:38 AM,33.8,32.0,93,30.26,10.0,Calm,Calm,-,N/A,,Clear,0,2013-05-14 11:38:00
7:58 AM,35.6,32.0,87,30.25,10.0,Calm,Calm,-,N/A,,Clear,0,2013-05-14 11:58:00
8:18 AM,35.6,32.0,87,30.26,10.0,Calm,Calm,-,N/A,,Clear,0,2013-05-14 12:18:00
8:38 AM,37.4,32.0,81,30.26,10.0,Calm,Calm,-,N/A,,Clear,0,2013-05-14 12:38:00
8:58 AM,41.0,32.0,70,30.26,10.0,Calm,Calm,-,N/A,,Clear,0,2013-05-14 12:58:00
9:18 AM,41.0,32.0,70,30.25,10.0,Calm,Calm,-,N/A,,Clear,0,2013-05-14 13:18:00
9:38 AM,42.8,32.0,66,30.25,10.0,Calm,Calm,-,N/A,,Clear,0,2013-05-14 13:38:00
9:58 AM,44.6,32.0,61,30.23,10.0,Calm,Calm,-,N/A,,Clear,0,2013-05-14 13:58:00
10:18 AM,46.4,32.0,57,30.23,10.0,Calm,Calm,-,N/A,,Clear,0,2013-05-14 14:18:00
10:38 AM,48.2,32.0,54,30.22,10.0,SW,4.6,-,N/A,,Clear,230,2013-05-14 14:38:00
10:58 AM,51.8,32.0,47,30.20,10.0,Calm,Calm,-,N/A,,Clear,0,2013-05-14 14:58:00
11:18 AM,53.6,32.0,44,30.20,10.0,Calm,Calm,-,N/A,,Clear,0,2013-05-14 15:18:00
11:38 AM,55.4,32.0,41,30.18,10.0,SE,3.5,-,N/A,,Clear,140,2013-05-14 15:38:00
11:58 AM,59.0,32.0,36,30.17,10.0,ESE,4.6,-,N/A,,Clear,120,2013-05-14 15:58:00
12:18 PM,59.0,32.0,36,30.16,10.0,SSE,4.6,-,N/A,,Clear,150,2013-05-14 16:18:00
12:39 PM,60.8,32.0,34,30.16,10.0,SSE,6.9,-,N/A,,Clear,160,2013-05-14 16:39:00
12:59 PM,60.8,32.0,34,30.15,10.0,South,3.5,-,N/A,,Clear,190,2013-05-14 16:59:00
1:19 PM,60.8,32.0,34,30.14,10.0,Calm,Calm,-,N/A,,Clear,0,2013-05-14 17:19:00
1:39 PM,62.6,30.2,30,30.13,10.0,SSW,4.6,-,N/A,,Clear,210,2013-05-14 17:39:00
1:59 PM,60.8,28.4,29,30.12,10.0,South,5.8,-,N/A,,Mostly Cloudy,190,2013-05-14 17:59:00
2:19 PM,60.8,26.6,27,30.12,10.0,Calm,Calm,-,N/A,,Mostly Cloudy,0,2013-05-14 18:19:00
2:39 PM,60.8,28.4,29,30.12,10.0,Calm,Calm,-,N/A,,Overcast,0,2013-05-14 18:39:00
2:59 PM,60.8,30.2,31,30.12,10.0,Calm,Calm,-,N/A,,Overcast,0,2013-05-14 18:59:00
3:19 PM,62.6,28.4,27,30.11,10.0,Calm,Calm,-,N/A,,Scattered Clouds,0,2013-05-14 19:19:00
3:39 PM,62.6,28.4,27,30.11,10.0,Calm,Calm,-,N/A,,Clear,0,2013-05-14 19:39:00
3:59 PM,64.4,28.4,26,30.10,10.0,SE,6.9,-,N/A,,Clear,130,2013-05-14 19:59:00
4:19 PM,64.4,28.4,26,30.09,10.0,ESE,4.6,-,N/A,,Clear,120,2013-05-14 20:19:00
4:39 PM,64.4,28.4,26,30.09,10.0,Calm,Calm,-,N/A,,Clear,0,2013-05-14 20:39:00
4:59 PM,62.6,30.2,30,30.08,10.0,East,4.6,-,N/A,,Scattered Clouds,100,2013-05-14 20:59:00
5:19 PM,62.6,30.2,30,30.08,10.0,ESE,4.6,-,N/A,,Mostly Cloudy,120,2013-05-14 21:19:00
5:39 PM,62.6,30.2,30,30.08,10.0,South,3.5,-,N/A,,Scattered Clouds,170,2013-05-14 21:39:00
5:59 PM,62.6,32.0,32,30.07,10.0,SE,5.8,-,N/A,,Clear,130,2013-05-14 21:59:00
6:19 PM,60.8,32.0,34,30.05,10.0,SE,8.1,-,N/A,,Clear,130,2013-05-14 22:19:00
6:39 PM,60.8,32.0,34,30.04,10.0,ESE,4.6,-,N/A,,Clear,110,2013-05-14 22:39:00
6:59 PM,60.8,32.0,34,30.04,10.0,SSE,3.5,-,N/A,,Clear,150,2013-05-14 22:59:00
7:19 PM,60.8,32.0,34,30.03,10.0,SE,4.6,-,N/A,,Scattered Clouds,130,2013-05-14 23:19:00
7:39 PM,60.8,32.0,34,30.04,10.0,SE,4.6,-,N/A,,Scattered Clouds,140,2013-05-14 23:39:00
7:59 PM,59.0,32.0,36,30.04,10.0,Calm,Calm,-,N/A,,Scattered Clouds,0,2013-05-14 23:59:00
8:19 PM,59.0,32.0,36,30.05,10.0,Calm,Calm,-,N/A,,Mostly Cloudy,0,2013-05-15 00:19:00
8:39 PM,59.0,32.0,36,30.05,10.0,ENE,3.5,-,N/A,,Mostly Cloudy,60,2013-05-15 00:39:00
8:59 PM,59.0,32.0,36,30.05,10.0,Calm,Calm,-,N/A,,Mostly Cloudy,0,2013-05-15 00:59:00
9:20 PM,59.0,33.8,39,30.06,10.0,Calm,Calm,-,N/A,,Scattered Clouds,0,2013-05-15 01:20:00
9:40 PM,59.0,32.0,36,30.07,10.0,Calm,Calm,-,N/A,,Mostly Cloudy,0,2013-05-15 01:40:00
10:00 PM,57.2,32.0,38,30.07,10.0,Calm,Calm,-,N/A,,Scattered Clouds,0,2013-05-15 02:00:00
10:20 PM,57.2,33.8,41,30.07,10.0,North,4.6,-,N/A,,Mostly Cloudy,10,2013-05-15 02:20:00
10:40 PM,55.4,33.8,44,30.07,10.0,Calm,Calm,-,N/A,,Overcast,0,2013-05-15 02:40:00
11:00 PM,55.4,33.8,44,30.07,10.0,Calm,Calm,-,N/A,,Overcast,0,2013-05-15 03:00:00
11:20 PM,55.4,33.8,44,30.05,10.0,Calm,Calm,-,N/A,,Overcast,0,2013-05-15 03:20:00
11:40 PM,55.4,33.8,44,30.05,10.0,Calm,Calm,-,N/A,,Overcast,0,2013-05-15 03:40:00